Location: Unspecified
(0.0000°N, 0.0000°E)
Time: 03:39:05
(UTC+01:00)

Amateur Radio Satellites - All Passes

Search period start: 10 February 2016 03:09
Search period end: 11 February 2016 03:09
Location: Unspecified, 0.0000°N, 0.0000°E

Satellite Date Start Highest point End Downlink Frequencies (MHz)
Time Altitude Azimuth
Oscar 19 10 Feb 03:15:24 03:18:00 14° 283° (WNW) 03:20:38 437.125/150
SO-50 10 Feb 03:21:30 03:23:43 13° 112° (ESE) 03:25:57 436.795
STARS 10 Feb 03:38:43 03:41:05 14° 78° (ENE) 03:43:27 437.465
ITUPSAT 1 10 Feb 03:39:53 03:43:19 20° 257° (WSW) 03:46:45 437.325
Gurwin Techsat 1B 10 Feb 03:43:13 03:47:24 24° 283° (WNW) 03:51:38 435.225
SRMSAT 10 Feb 03:47:11 03:51:12 18° 166° (SSE) 03:55:11 437.500
MOZHAYETS 4 10 Feb 03:47:56 03:49:39 12° 78° (ENE) 03:51:21
BEESAT 10 Feb 03:49:16 03:51:54 15° 257° (WSW) 03:54:34 436.000
KKS-1 10 Feb 03:53:10 03:57:34 53° 78° (ENE) 04:01:54 437.445
JUGNU 10 Feb 03:59:22 04:05:14 54° 159° (SSE) 04:11:05 437.505
BEESAT 3 10 Feb 04:03:05 04:06:23 26° 68° (ENE) 04:09:42 437.485
Cosmos 2491 10 Feb 04:06:42 04:15:24 71° 267° (W) 04:24:12 435.465 / 435.565
M-CUBED/EXP-1 PRIME 10 Feb 04:16:46 04:20:06 29° 107° (ESE) 04:23:40 437.505
Cosmos 2504 10 Feb 04:17:32 04:22:04 16° 92° (E) 04:26:44 435.465 / 435.565
ITAMSAT 1 10 Feb 04:23:00 04:26:27 18° 283° (WNW) 04:29:56 435.822/435.867
AUBIESAT-1 10 Feb 04:26:39 04:30:06 32° 107° (ESE) 04:33:48 437.475
BEESAT 2 10 Feb 04:26:46 04:30:18 32° 68° (ENE) 04:33:50 435.950
YUBILEINY 10 Feb 04:29:22 04:37:46 53° 273° (W) 04:46:13 435.215
AO-7 10 Feb 04:41:57 04:50:13 79° 286° (WNW) 04:58:31 29.400- 29.500
SO-50 10 Feb 04:59:43 05:03:56 32° 292° (WNW) 05:08:14 436.795
STARS 10 Feb 05:13:36 05:17:12 24° 258° (WSW) 05:20:47 437.465
MOZHAYETS 4 10 Feb 05:22:34 05:26:33 30° 258° (WSW) 05:30:31
HORYU 2 10 Feb 05:33:06 05:37:15 39° 282° (WNW) 05:41:26 437.375
SRMSAT 10 Feb 05:35:10 05:40:47 42° 160° (SSE) 05:46:22 437.500
JUGNU 10 Feb 05:48:27 05:54:19 55° 339° (NNW) 06:00:09 437.505
CUTE-I 10 Feb 06:00:15 06:03:29 16° 103° (ESE) 06:06:42 437.470
CUBESAT XI-V 10 Feb 06:02:27 06:06:55 46° 78° (ENE) 06:11:22 437.345
Cosmos 2504 10 Feb 06:07:07 06:14:54 57° 273° (W) 06:23:15 435.465 / 435.565
Cubesat XI-IV 10 Feb 06:12:56 06:17:09 24° 103° (ESE) 06:21:22 437.490
AIST 2 10 Feb 06:20:40 06:24:43 69° 69° (ENE) 06:28:46 435.215
STRAND 1 10 Feb 06:44:14 06:45:40 11° 77° (ENE) 06:47:07 437.568
BRITE-PL 10 Feb 06:47:10 06:50:22 21° 101° (E) 06:53:31 437.365/2234.400
LilacSat-2 10 Feb 07:06:59 07:10:46 73° 280° (W) 07:14:34 437.200
SRMSAT 10 Feb 07:24:05 07:30:01 71° 339° (NNW) 07:35:56 437.500
DOVE 4 10 Feb 07:34:46 07:37:17 16° 102° (ESE) 07:39:50 437.250
CUTE-I 10 Feb 07:38:29 07:43:14 33° 283° (WNW) 07:48:01 437.470
JUGNU 10 Feb 07:39:05 07:43:36 22° 343° (NNW) 07:48:06 437.505
PRISM 10 Feb 07:41:14 07:42:40 12° 78° (ENE) 07:44:06 437.425
O/OREOS (USA 219) 10 Feb 07:42:18 07:46:44 65° 104° (ESE) 07:51:08 437.305
GOMX 1 10 Feb 07:51:59 07:56:07 76° 102° (ESE) 08:00:17 467.674
Cubesat XI-IV 10 Feb 07:52:48 07:56:57 23° 283° (WNW) 08:01:06 437.490
CANX-2 10 Feb 07:55:30 07:56:51 11° 102° (ESE) 07:58:12 2200.000
GONETS M04 10 Feb 08:03:02 08:06:29 13° 93° (E) 08:09:55
STRAND 1 10 Feb 08:19:48 08:24:34 41° 258° (WSW) 08:29:20 437.568
BRITE-PL 10 Feb 08:26:31 08:28:37 14° 283° (WNW) 08:30:43 437.365/2234.400
CINEMA 3 10 Feb 08:28:11 08:31:36 23° 102° (ESE) 08:35:07 145.822/145.860
COMPASS 1 10 Feb 08:36:36 08:39:31 18° 102° (ESE) 08:42:25 437.405
CUTE 1.7 + AOD 2 10 Feb 08:43:15 08:47:25 51° 101° (ESE) 08:51:35 437.475
SEEDS 10 Feb 08:49:41 08:53:43 43° 102° (ESE) 08:57:46 437.485
HO-68 10 Feb 08:49:54 08:57:02 71° 104° (ESE) 09:04:11 435.675
AAUSAT CUBESAT 2 10 Feb 09:04:16 09:08:07 35° 102° (ESE) 09:11:57 437.432
DOVE 4 10 Feb 09:11:54 09:14:46 18° 281° (W) 09:17:40 437.250
PRISM 10 Feb 09:14:20 09:17:44 25° 258° (WSW) 09:21:09 437.425
SRMSAT 10 Feb 09:14:25 09:19:21 27° 342° (NNW) 09:24:17 437.500
PHONESAT 2.4 10 Feb 09:15:17 09:17:30 17° 42° (NE) 09:19:43 2401.200-2431.200
Cosmos 2499 10 Feb 09:17:10 09:22:54 21° 92° (E) 09:28:49 435.465 / 435.565
CANX-2 10 Feb 09:28:45 09:32:26 28° 281° (WNW) 09:36:09 2200.000
ZACube-1 10 Feb 09:30:01 09:33:13 20° 103° (ESE) 09:36:28 437.345
JUGNU 10 Feb 09:31:34 09:33:24 11° 352° (N) 09:35:15 437.505
FUNcube-1 10 Feb 09:38:39 09:42:14 25° 102° (ESE) 09:45:53 145.935
GONETS M04 10 Feb 09:54:18 10:02:56 69° 273° (W) 10:11:32
AO-85 10 Feb 09:59:30 10:04:15 68° 292° (WNW) 10:09:26 145.980
PCSat 10 Feb 10:03:45 10:08:58 50° 109° (ESE) 10:14:10 145.827
CINEMA 3 10 Feb 10:06:26 10:08:32 13° 281° (W) 10:10:39 145.822/145.860
UNISAT 6 10 Feb 10:09:23 10:11:16 12° 79° (ENE) 10:13:08 437.425
CUBEBUG 2 10 Feb 10:10:46 10:14:50 41° 281° (W) 10:19:04 437.445
Oscar 11 10 Feb 10:10:51 10:15:11 74° 281° (WNW) 10:19:33 145.826/435.025
UWE-3 10 Feb 10:11:08 10:15:25 63° 281° (WNW) 10:19:52 435.000/436.395/437.385
COMPASS 1 10 Feb 10:12:04 10:14:49 17° 282° (WNW) 10:17:36 437.405
DELFI C3 10 Feb 10:17:16 10:21:15 61° 101° (ESE) 10:25:15 145.870
RS-15 10 Feb 10:36:48 10:47:19 56° 111° (ESE) 10:58:00 29.354- 29.394
HO-68 10 Feb 10:42:34 10:44:20 11° 286° (WNW) 10:46:09 435.675
ANTELSAT 10 Feb 10:51:55 10:56:17 53° 79° (E) 11:00:32 437.575/2403.000
PHONESAT 2.4 10 Feb 10:52:02 10:54:37 22° 222° (SW) 10:57:13 2401.200-2431.200
TIGRISAT 10 Feb 10:58:40 11:03:07 63° 78° (ENE) 11:07:25 435.000
QB50P1 10 Feb 11:04:24 11:05:35 11° 78° (ENE) 11:06:45 145.935-145.965
ZACube-1 10 Feb 11:06:24 11:09:15 17° 281° (W) 11:12:08 437.345
SRMSAT 10 Feb 11:06:31 11:09:10 13° 350° (N) 11:11:49 437.500
Cosmos 2499 10 Feb 11:07:46 11:15:32 48° 274° (W) 11:23:47 435.465 / 435.565
FUNcube-1 10 Feb 11:16:03 11:18:14 14° 281° (W) 11:20:26 145.935
VELOX 1 10 Feb 11:19:11 11:21:58 17° 102° (ESE) 11:24:44 145.980
AIST 1 10 Feb 11:21:36 11:25:54 57° 274° (W) 11:30:11
HUMSAT D 10 Feb 11:22:42 11:26:43 43° 281° (WNW) 11:30:49 437.325/437.525
AISAT 10 Feb 11:34:49 11:38:38 30° 102° (ESE) 11:42:27 437.250
UNISAT 6 10 Feb 11:43:57 11:47:46 27° 258° (WSW) 11:51:29 437.425
UKube-1 10 Feb 11:46:31 11:50:28 36° 102° (ESE) 11:54:27 .
CUBEBUG 1 10 Feb 11:53:44 11:57:47 41° 102° (ESE) 12:01:51 437.445
POLYITAN 1 10 Feb 11:53:57 11:58:12 66° 78° (ENE) 12:02:24 437.675
QB50P2 10 Feb 11:54:34 11:58:50 70° 78° (ENE) 12:03:03 145.880/145.840
BUGSAT 1 10 Feb 11:56:11 11:59:44 26° 78° (ENE) 12:03:16 437.445
ESTCUBE 1 10 Feb 11:56:47 12:01:17 71° 102° (ESE) 12:05:46 437.505/2401.250
SPROUT 10 Feb 11:58:07 11:59:26 11° 102° (ESE) 12:00:44 437.525
DX 1 10 Feb 11:58:31 12:02:49 71° 102° (ESE) 12:07:08 434.975-435.025
50 SAT 10 Feb 12:02:25 12:06:13 75° 282° (WNW) 12:10:03 437.505
POPSAT HIP 1 10 Feb 12:24:25 12:28:30 44° 258° (WSW) 12:32:33 437.405
NANOSAT C BR1 10 Feb 12:29:05 12:33:04 38° 258° (WSW) 12:37:00 145.865
DUCHIFAT 1 10 Feb 12:30:25 12:34:23 39° 258° (WSW) 12:38:20 145.980
QB50P1 10 Feb 12:37:26 12:41:06 28° 258° (WSW) 12:44:46 145.935-145.965
RS-15 10 Feb 12:51:14 12:59:17 24° 293° (WNW) 13:07:35 29.354- 29.394
VELOX 1 10 Feb 12:54:55 12:58:11 21° 282° (WNW) 13:01:26 145.980
JUGNU 10 Feb 13:10:17 13:13:38 15° 13° (NNE) 13:17:00 437.505
AISAT 10 Feb 13:13:35 13:14:51 11° 282° (WNW) 13:16:08 437.250
ISS 10 Feb 13:29:17 13:32:15 32° 126° (SE) 13:35:13 145.825
SPROUT 10 Feb 13:31:31 13:35:08 27° 282° (WNW) 13:38:46 437.525
BUGSAT 1 10 Feb 13:33:10 13:34:50 12° 258° (WSW) 13:36:31 437.445
CUSAT 1 10 Feb 13:35:04 13:37:17 15° 79° (E) 13:39:15 437.405
TISAT 1 10 Feb 13:38:56 13:43:05 80° 281° (W) 13:47:16 437.305
SWISSCUBE 10 Feb 13:48:14 13:51:06 16° 103° (ESE) 13:53:56 437.505
JAS-2 10 Feb 13:52:02 13:59:29 47° 77° (ENE) 14:06:47 435.910
Oscar 19 10 Feb 14:07:31 14:12:45 89° 76° (ENE) 14:17:56 437.125/150
DANDE 10 Feb 14:10:05 14:13:58 25° 79° (E) 14:17:04 436.750
ITUPSAT 1 10 Feb 14:23:32 14:28:02 40° 102° (ESE) 14:32:32 437.325
BEESAT 10 Feb 14:31:37 14:36:17 54° 102° (ESE) 14:40:57 436.000
Gurwin Techsat 1B 10 Feb 14:41:02 14:46:17 63° 78° (ENE) 14:51:31 435.225
Cosmos 2491 10 Feb 14:45:42 14:52:54 29° 93° (E) 15:00:00 435.465 / 435.565
SRMSAT 10 Feb 14:46:59 14:49:47 13° 11° (N) 14:52:34 437.500
JUGNU 10 Feb 14:57:51 15:03:07 34° 19° (NNE) 15:08:24 437.505
YUBILEINY 10 Feb 15:06:59 15:14:57 39° 87° (E) 15:22:51 435.215
ITAMSAT 1 10 Feb 15:17:07 15:22:17 76° 77° (ENE) 15:27:27 435.822/435.867
AO-7 10 Feb 15:18:15 15:24:15 22° 73° (ENE) 15:30:13 29.400- 29.500
SWISSCUBE 10 Feb 15:24:37 15:28:37 27° 282° (WNW) 15:32:37 437.505
SO-50 10 Feb 15:33:15 15:36:49 23° 67° (ENE) 15:40:18 436.795
JAS-2 10 Feb 15:38:17 15:44:04 23° 256° (WSW) 15:49:49 435.910
STARS 10 Feb 15:48:47 15:51:58 20° 103° (ESE) 15:55:09 437.465
BEESAT 3 10 Feb 15:55:58 15:59:24 28° 112° (ESE) 16:02:49 437.485
MOZHAYETS 4 10 Feb 16:02:52 16:06:21 21° 102° (ESE) 16:09:49
KKS-1 10 Feb 16:05:34 16:09:59 81° 104° (ESE) 16:14:25 437.445
HORYU 2 10 Feb 16:11:27 16:13:36 13° 78° (ENE) 16:15:45 437.375
M-CUBED/EXP-1 PRIME 10 Feb 16:18:00 16:21:41 30° 76° (ENE) 16:25:05 437.505
BEESAT 2 10 Feb 16:20:39 16:24:20 35° 112° (ESE) 16:28:00 435.950
AUBIESAT-1 10 Feb 16:27:26 16:31:06 31° 76° (ENE) 16:34:31 437.475
Cosmos 2504 10 Feb 16:28:52 16:34:33 21° 85° (E) 16:39:57 435.465 / 435.565
SRMSAT 10 Feb 16:34:33 16:39:34 28° 18° (NNE) 16:44:37 437.500
Cosmos 2491 10 Feb 16:41:34 16:49:19 36° 273° (W) 16:57:03 435.465 / 435.565
JUGNU 10 Feb 16:46:20 16:52:12 86° 200° (SSW) 16:58:05 437.505
YUBILEINY 10 Feb 17:04:23 17:11:20 27° 267° (W) 17:18:18 435.215
AO-7 10 Feb 17:08:39 17:16:37 50° 254° (WSW) 17:24:37 29.400- 29.500
SO-50 10 Feb 17:14:13 17:17:01 16° 248° (WSW) 17:19:46 436.795
STARS 10 Feb 17:25:13 17:28:04 17° 282° (WNW) 17:30:56 437.465
MOZHAYETS 4 10 Feb 17:40:02 17:43:15 19° 282° (WNW) 17:46:28
HORYU 2 10 Feb 17:46:13 17:49:55 26° 258° (WSW) 17:53:35 437.375
AIST 2 10 Feb 18:19:03 18:23:12 88° 112° (ESE) 18:27:22 435.215
Cosmos 2504 10 Feb 18:20:20 18:27:37 40° 268° (W) 18:34:31 435.465 / 435.565
CUBESAT XI-V 10 Feb 18:20:39 18:25:18 84° 101° (E) 18:29:56 437.345
SRMSAT 10 Feb 18:22:57 18:28:54 75° 21° (NNE) 18:34:54 437.500
JUGNU 10 Feb 18:36:08 18:41:18 32° 199° (SSW) 18:46:31 437.505
CUTE-I 10 Feb 18:37:46 18:42:52 47° 77° (ENE) 18:47:55 437.470
Cubesat XI-IV 10 Feb 18:51:27 18:56:45 69° 77° (ENE) 19:02:01 437.490
LilacSat-2 10 Feb 19:01:45 19:05:38 89° 259° (W) 19:09:28 437.200
BRITE-PL 10 Feb 19:11:11 19:16:40 60° 78° (ENE) 19:22:16 437.365/2234.400
STRAND 1 10 Feb 19:13:49 19:18:15 29° 103° (ESE) 19:22:40 437.568
PRISM 10 Feb 19:43:53 19:45:45 13° 102° (ESE) 19:47:37 437.425
O/OREOS (USA 219) 10 Feb 19:53:06 19:57:40 72° 256° (WSW) 20:02:15 437.305
DOVE 4 10 Feb 19:53:26 19:58:21 39° 79° (ENE) 20:03:08 437.250
CANX-2 10 Feb 20:01:22 20:03:29 14° 78° (ENE) 20:05:35 2200.000
SRMSAT 10 Feb 20:12:34 20:18:09 40° 200° (SSW) 20:23:47 437.500
GOMX 1 10 Feb 20:14:28 20:19:49 54° 258° (WSW) 20:25:08 467.674
CUTE-I 10 Feb 20:21:39 20:22:36 10° 257° (WSW) 20:23:34 437.470
JUGNU 10 Feb 20:27:41 20:30:52 15° 192° (SSW) 20:34:06 437.505
GONETS M04 10 Feb 20:32:42 20:40:02 30° 87° (E) 20:47:22
AO-85 10 Feb 20:37:13 20:37:57 10° 65° (ENE) 20:38:41 145.980
COMPASS 1 10 Feb 20:40:53 20:43:58 20° 78° (ENE) 20:47:02 437.405
HO-68 10 Feb 20:41:36 20:48:37 60° 76° (ENE) 20:55:38 435.675
CINEMA 3 10 Feb 20:43:54 20:48:36 44° 79° (ENE) 20:53:05 145.822/145.860
PHONESAT 2.4 10 Feb 20:48:43 20:50:12 12° 138° (SE) 20:51:39 2401.200-2431.200
CUBEBUG 2 10 Feb 20:49:28 20:51:26 13° 79° (E) 20:53:23 437.445
CUTE 1.7 + AOD 2 10 Feb 20:49:47 20:53:57 64° 79° (E) 20:58:05 437.475
STRAND 1 10 Feb 20:53:56 20:57:08 17° 283° (WNW) 21:00:21 437.568
SEEDS 10 Feb 20:55:11 20:59:14 51° 78° (ENE) 21:03:16 437.485
AAUSAT CUBESAT 2 10 Feb 21:08:08 21:12:00 40° 79° (ENE) 21:15:52 437.432
PRISM 10 Feb 21:17:33 21:20:49 23° 282° (WNW) 21:24:05 437.425
Cosmos 2499 10 Feb 21:27:42 21:33:37 24° 85° (E) 21:39:17 435.465 / 435.565
DOVE 4 10 Feb 21:33:10 21:35:42 14° 257° (WSW) 21:38:12 437.250
CANX-2 10 Feb 21:35:48 21:39:05 22° 258° (WSW) 21:42:21 2200.000
ZACube-1 10 Feb 21:39:50 21:43:31 27° 79° (E) 21:47:07 437.345
FUNcube-1 10 Feb 21:48:18 21:52:15 33° 79° (ENE) 21:56:03 145.935
SRMSAT 10 Feb 22:03:50 22:07:46 18° 194° (SSW) 22:11:44 437.500
AO-85 10 Feb 22:14:27 22:18:16 30° 250° (WSW) 22:21:51 145.980
DELFI C3 10 Feb 22:16:46 22:20:40 59° 79° (E) 22:24:33 145.870
COMPASS 1 10 Feb 22:17:03 22:19:16 14° 258° (WSW) 22:21:30 437.405
RS-15 10 Feb 22:18:08 22:29:52 50° 69° (ENE) 22:41:16 29.354- 29.394
Oscar 11 10 Feb 22:19:49 22:24:01 53° 258° (WSW) 22:28:12 145.826/435.025
UNISAT 6 10 Feb 22:21:02 22:24:18 20° 103° (ESE) 22:27:37 437.425
UWE-3 10 Feb 22:22:56 22:27:10 42° 258° (WSW) 22:31:15 435.000/436.395/437.385
CUBEBUG 2 10 Feb 22:23:57 22:27:50 28° 258° (WSW) 22:31:36 437.445
PHONESAT 2.4 10 Feb 22:24:21 22:27:20 32° 317° (NW) 22:30:19 2401.200-2431.200
GONETS M04 10 Feb 22:28:40 22:36:27 36° 267° (W) 22:44:17
HO-68 10 Feb 22:32:34 22:35:58 14° 255° (WSW) 22:39:22 435.675
PCSat 10 Feb 22:39:54 22:45:07 51° 251° (WSW) 22:50:21 145.827
ANTELSAT 10 Feb 23:04:45 23:09:13 83° 100° (E) 23:13:51 437.575/2403.000
QB50P1 10 Feb 23:09:41 23:11:45 13° 102° (ESE) 23:13:49 145.935-145.965
TIGRISAT 10 Feb 23:11:22 23:15:50 85° 280° (W) 23:20:26 435.000
ZACube-1 10 Feb 23:17:52 23:19:31 12° 257° (WSW) 23:21:08 437.345
Cosmos 2499 10 Feb 23:19:45 23:26:25 33° 268° (W) 23:32:46 435.465 / 435.565
HUMSAT D 10 Feb 23:28:08 23:31:56 35° 258° (WSW) 23:35:41 437.325/437.525
AIST 1 10 Feb 23:28:34 23:32:33 38° 266° (W) 23:36:32
VELOX 1 10 Feb 23:30:08 23:33:45 24° 78° (ENE) 23:37:21 145.980
AISAT 10 Feb 23:46:16 23:50:33 44° 78° (ENE) 23:54:48 437.250
UKube-1 10 Feb 23:54:59 23:59:12 49° 78° (ENE) 00:03:22 .
50 SAT 10 Feb 23:55:16 23:58:58 81° 78° (ENE) 00:02:39 437.505
SRMSAT 10 Feb 23:56:47 23:57:56 11° 185° (S) 23:59:06 437.500
UNISAT 6 10 Feb 23:57:37 00:00:45 19° 281° (WNW) 00:03:57 437.425
BUGSAT 1 10 Feb 23:59:27 00:02:51 27° 102° (ESE) 00:06:17 437.445
POLYITAN 1 11 Feb 00:00:21 00:04:33 83° 102° (ESE) 00:08:49 437.675
QB50P2 11 Feb 00:00:58 00:05:11 88° 107° (ESE) 00:09:26 145.880/145.840
CUBEBUG 1 11 Feb 00:03:37 00:08:00 59° 78° (ENE) 00:12:21 437.445
SPROUT 11 Feb 00:04:42 00:07:10 15° 78° (ENE) 00:09:38 437.525
DX 1 11 Feb 00:08:10 00:12:34 83° 260° (W) 00:16:56 434.975-435.025
JUGNU 11 Feb 00:08:47 00:11:11 12° 171° (S) 00:13:35 437.505
ESTCUBE 1 11 Feb 00:10:58 00:15:28 73° 258° (WSW) 00:19:58 437.505/2401.250
POPSAT HIP 1 11 Feb 00:30:52 00:34:42 35° 281° (WNW) 00:38:34 437.405
RS-15 11 Feb 00:31:38 00:41:52 32° 249° (WSW) 00:51:58 29.354- 29.394
NANOSAT C BR1 11 Feb 00:35:11 00:38:54 31° 282° (WNW) 00:42:39 145.865
DUCHIFAT 1 11 Feb 00:36:14 00:39:57 32° 282° (WNW) 00:43:43 145.980
QB50P1 11 Feb 00:43:57 00:47:16 23° 282° (WNW) 00:50:36 145.935-145.965
ISS 11 Feb 01:03:27 01:05:53 19° 54° (NE) 01:08:19 145.825
Oscar 19 11 Feb 01:04:48 01:07:19 14° 103° (ESE) 01:09:50 437.125/150
VELOX 1 11 Feb 01:07:30 01:09:58 15° 258° (WSW) 01:12:25 145.980
JAS-2 11 Feb 01:28:30 01:31:38 16° 104° (ESE) 01:34:48 435.910
SPROUT 11 Feb 01:39:33 01:42:53 22° 258° (WSW) 01:46:13 437.525
Gurwin Techsat 1B 11 Feb 01:43:31 01:45:04 11° 103° (ESE) 01:46:36 435.225
TISAT 1 11 Feb 01:44:26 01:48:40 66° 259° (W) 01:52:52 437.305
SRMSAT 11 Feb 01:46:40 01:48:22 11° 174° (S) 01:50:03 437.500
JUGNU 11 Feb 01:56:11 02:00:58 24° 163° (SSE) 02:05:45 437.505
CUSAT 1 11 Feb 02:08:01 02:14:43 89° 94° (E) 02:22:41 437.405
SWISSCUBE 11 Feb 02:09:00 02:13:08 30° 78° (ENE) 02:17:15 437.505
ITAMSAT 1 11 Feb 02:16:04 02:18:05 12° 103° (ESE) 02:20:06 435.822/435.867
ISS 11 Feb 02:40:47 02:42:08 12° 234° (SW) 02:43:29 145.825
Oscar 19 11 Feb 02:41:45 02:46:21 34° 283° (WNW) 02:50:58 437.125/150
ITUPSAT 1 11 Feb 02:45:39 02:50:25 81° 78° (ENE) 02:55:10 437.325
DANDE 11 Feb 02:49:14 02:55:16 75° 275° (W) 03:02:58 436.750
BEESAT 11 Feb 02:53:32 02:58:17 77° 258° (WSW) 03:03:01 436.000
